Weather in Verkudy

Belarus     55°12′25″N   28°55′04″E
temp.,
°C
wind,
m/s
gust,
m/s
humid.,
%
clouds,
%
prec.,
mm/h
press.,
hPa
HPBL,
m
12 may, wed
wed1200:00+11se38895 0.0 1022138
03:00+10ese3109460 0.0 1021181
06:00+11ese23950 0.0 102157
09:00+15se57760 0.0 1022632
12:00+17se786142 0.0 10221343
15:00+17se67460 0.0 10211494
18:00+17se35512 0.0 10181402
21:00+13nne2270100 0.0 101611
13 may, thu
thu1300:00+13nne51169100 0.2 1013403
03:00+12ne41198100 5.6 1009684
06:00+9ese91589100 1.4 1009929
09:00+9ese8158699 1.4 10111169
12:00+13se8117076 0.3 10101502
15:00+14se796890 1.6 10091518
18:00+12sse587877 1.1 1009910
21:00+9se3789100 1.5 1009261
14 may, fri
fri1400:00+9se41291100 0.1 1009553
03:00+9ese61294100 1.3 1007552
06:00+10se61394100 2.6 1007632
09:00+13se7138691 3.2 1007898
12:00+14sse61183100 0.2 10071198
15:00+15sse61077100 0.4 1007865
18:00+18sse46696 0.0 10061127
21:00+13se228725 0.1 100611
15 may, sat
sat1500:00+12ese2291100 0.0 100512
03:00+10ese119329 0.0 100510
06:00+11sse119565 0.9 100511
09:00+15wsw228483 2.0 1004392
12:00+16ssw227699 0.3 1005713
15:00+18wsw557199 2.6 1005967
18:00+16wnw4683100 3.3 1005623
21:00+13wnw3491100 5.9 100684
16 may, sun
sun1600:00+11w379367 0.0 1008147
03:00+9wnw369458 0.0 1009116
06:00+8w249464 0.0 101086
09:00+14w22765 0.0 1011422
12:00+18ssw22595 0.0 10121091
15:00+19sse235687 0.0 10111487
18:00+18se3569100 0.1 1011308
21:00+14ese348551 0.7 101152